User: anonymous   Login
Location: Syracuse
(43.0480°N, 76.1480°W)
Time: 07:48:37
(UTC-04:00)
Language:

Cosmos 1140 Rocket - Orbit

View from above orbital plane
View from above orbital plane
View from above satellite
View from above satellite

Ground track
Ground track

The orbit data is extracted from the following two-line orbital elements,

1 11574U 79089B   18108.74284556  .00000049  00000-0  23500-4 0  9997
2 11574  74.0719  15.0256 0016450 205.3035 154.7317 14.40671531 21149
Epoch (UTC): 18 April 2018 17:49:41
Eccentricity: 0.0016450
inclination: 74.0719°
perigee height: 744 km
apogee height: 768 km
right ascension of ascending node: 15.0256°
argument of perigee: 205.3035°
revolutions per day: 14.40671531
mean anomaly at epoch: 154.7317°
orbit number at epoch: 2114

The dashed part of the orbit path shows where the satellite is in the earth's shadow,  

DLR